Location: Ferchesar
(52.6477°N, 12.4298°E)
Time: 23:29:47
(UTC+01:00)

TIGRISAT - Pass Details

Date: 26 October 2021
Orbit: 603 x 689 km, 97.7° (Epoch: 30 November)

Event Time Altitude Azimuth Distance (km) Brightness Sun altitude
Rises 05:46:22 0° 121° (ESE) 3,050 ? -20.2°
Reaches altitude 10° 05:49:04 10° 106° (ESE) 2,131 ? -19.8°
Maximum altitude 05:52:30 21° 59° (ENE) 1,530 ? -19.3°
Drops below altitude 10° 05:55:54 10° 11° (N) 2,114 ? -18.7°
Sets 05:58:34 0° 356° (N) 3,018 ? -18.3°
